Simultaneous Nadir Overpasses (SNOs) Predictions

Prediction of SNOs between NOAA-19 and NPP Satellite Orbit:

Table of predicted SNOs for the next 14.0 days since TLE Epoch: 12/7/2018
Index Date (NOAA-19) Time (NOAA-19) Lat,Lon (NOAA-19) SZA (NOAA-19 ) Date (NPP) Time (NPP) Lat,Lon (NPP) SZA (NPP ) Distance(km) Time Diff (sec)
1 12/08/2018 08:48:44 80.33, 5.15 105.22 12/08/2018 08:49:56 80.33, 5.22 105.18 1.29 72
2 12/08/2018 09:39:39 -80.34, 172.60 74.79 12/08/2018 09:40:41 -80.34, 172.46 74.81 2.55 62
3 12/08/2018 10:30:45 80.33, -20.35 105.23 12/08/2018 10:31:26 80.34, -20.19 105.19 3.05 41
4 12/08/2018 11:21:40 -80.34, 147.09 74.78 12/08/2018 11:22:11 -80.34, 147.05 74.79 0.74 31
5 12/08/2018 12:12:45 80.35, -45.52 105.22 12/08/2018 12:12:56 80.34, -45.59 105.21 2.08 11
6 12/08/2018 13:03:41 -80.34, 121.59 74.78 12/08/2018 13:03:41 -80.35, 121.64 74.78 1.07 0
7 12/08/2018 13:54:45 80.35, -71.02 105.22 12/08/2018 13:54:25 80.34, -71.00 105.22 1.22 20
8 12/08/2018 14:45:41 -80.34, 96.09 74.77 12/08/2018 14:45:10 -80.35, 96.24 74.77 2.88 31
9 12/08/2018 15:36:46 80.35, -96.52 105.23 12/08/2018 15:35:55 80.34, -96.41 105.24 2.22 51
10 12/08/2018 16:27:41 -80.36, 70.92 74.78 12/08/2018 16:26:40 -80.35, 70.83 74.75 2.06 61




NCC Satellite Simultaneous Nadir Overpasses (SNOs) Prediction Service
